DateTime,F1_A11,F1_S11,BsB_S11,BsG_S11,BsR_S11,BbsB_S11,BbsG_S11,BbsR_S11,BaB_A11,BaG_A11,BaR_A11,T_S11,U_S11,P_S11,T1_A11
2016-09-02T00:00:00Z,0000388,21000608,,,,,,,,,,26.5,00.3,0656.0,34.7
2016-09-02T00:01:00Z,0000388,21000608,,,,,,,,,,26.5,00.3,0656.0,34.7
2016-09-02T00:02:00Z,0000388,21000608,,,,,,,,,,26.5,00.3,0656.0,34.7
2016-09-02T00:03:00Z,0000388,61000608,,,,,,,,,,26.5,00.3,0656.0,34.7
2016-09-02T00:04:00Z,0000388,41000608,0001.66,-000.43,0000.14,-000.21,0000.26,0000.00,0000.13,0000.26,-000.01,26.7,00.3,0657.0,34.7
2016-09-02T00:05:00Z,0000388,01000608,0001.02,0000.04,-000.03,-000.60,0000.00,0000.18,0000.11,-000.04,0000.18,26.7,00.2,0657.0,34.7
2016-09-02T00:06:00Z,0000388,01000608,0000.20,0000.68,-000.08,-000.24,0000.05,-000.48,-000.15,0000.11,-000.00,26.7,00.4,0657.0,34.7
2016-09-02T00:07:00Z,0000388,01000608,0001.07,0000.84,0000.06,0000.13,-000.08,0000.24,-000.04,0000.09,0000.15,26.7,00.3,0657.0,34.7
2016-09-02T00:08:00Z,0000388,01000608,0001.57,0000.33,-000.16,-000.29,0000.06,0000.27,0000.18,-000.08,-000.18,26.7,00.4,0657.0,34.7
2016-09-02T00:09:00Z,000038A,0100060A,0000.47,0000.19,0000.12,-000.34,-000.32,0000.05,-000.12,0000.05,-000.18,26.7,00.3,0657.0,34.7
2016-09-02T00:10:00Z,0000382,01000602,0000.98,0000.85,0000.21,-000.74,-000.16,-000.06,0000.42,0000.17,0000.60,26.7,00.3,0657.0,34.7
2016-09-02T00:11:00Z,0000382,01000602,0000.56,0000.00,-000.36,0000.13,-000.34,0000.08,-000.29,0000.01,-000.27,26.7,00.3,0657.1,34.7
2016-09-02T00:12:00Z,0000382,01000602,-000.76,0000.36,-000.37,-000.27,-000.14,-000.34,0000.50,-000.08,0000.24,26.7,00.4,0657.1,34.7
2016-09-02T00:13:00Z,0000382,01000602,0000.27,0000.09,-000.03,-000.27,0000.02,-000.42,-000.40,0000.11,-000.21,26.7,00.3,0657.1,34.7
2016-09-02T00:14:00Z,0000382,01000602,0000.92,0000.14,-000.18,0000.00,0000.61,0000.15,0000.10,-000.08,-000.01,26.7,00.3,0657.1,34.7
2016-09-02T00:15:00Z,0000382,01000602,0001.00,0000.39,0000.21,0000.35,-000.37,0000.13,0000.07,0000.18,0000.02,26.7,00.2,0657.1,34.8
2016-09-02T00:16:00Z,0000382,01000602,0000.74,0000.39,-000.18,-000.16,-000.27,0000.19,0000.22,0000.08,0000.40,26.7,00.3,0657.1,34.8
2016-09-02T00:17:00Z,0000382,01000602,0001.56,0000.27,0000.06,0000.19,-000.05,0000.06,-000.07,-000.16,-000.31,26.8,00.2,0657.1,34.8
2016-09-02T00:18:00Z,0000382,01000602,0000.16,-000.03,0000.19,0000.45,-000.13,-000.05,-000.11,0000.21,0000.09,26.8,00.2,0657.1,34.8
2016-09-02T00:19:00Z,0000382,01000602,0001.05,0000.20,-000.12,0000.16,-000.14,-000.50,0000.05,-000.05,-000.02,26.8,00.3,0657.1,34.8
2016-09-02T00:20:00Z,0000382,01000602,0000.65,-000.11,0000.49,-000.10,0000.02,-000.39,0000.15,0000.02,0000.05,26.8,00.2,0657.1,34.8
2016-09-02T00:21:00Z,0000382,01000602,0000.48,-000.22,0000.31,0000.74,-000.38,-000.29,-000.05,0000.15,0000.07,26.8,00.2,0657.1,34.8
2016-09-02T00:22:00Z,0000382,01000602,0000.43,0000.26,-000.04,0000.16,0000.21,0000.05,-000.06,0000.03,-000.07,26.8,00.2,0657.1,34.8
2016-09-02T00:23:00Z,0000388,01000608,-000.10,-000.23,0000.34,-000.35,-000.21,-000.27,0000.27,-000.03,0000.12,26.8,00.2,0657.1,34.8
2016-09-02T00:24:00Z,0000388,01000608,0000.29,0000.26,0000.12,0000.34,0000.21,-000.11,-000.07,0000.17,-000.04,26.8,00.2,0657.1,34.8
2016-09-02T00:25:00Z,0000388,01000608,0000.75,0000.39,0000.02,-000.16,-000.11,-000.02,-000.03,-000.04,0000.18,26.8,00.2,0657.1,34.8
2016-09-02T00:26:00Z,0000388,01000608,-000.02,0000.58,0000.26,-000.08,-000.45,0000.21,0000.10,0000.01,0000.08,26.8,00.1,0657.1,34.8
2016-09-02T00:27:00Z,0000388,01000608,0000.80,0000.80,0000.32,-000.29,0000.16,0000.08,0000.22,-000.04,-000.18,26.8,00.1,0657.1,34.8
2016-09-02T00:28:00Z,0000388,01000608,0000.02,0000.79,0000.30,-000.13,0000.22,0000.13,-000.11,0000.18,0000.04,26.8,00.2,0657.1,34.8
2016-09-02T00:29:00Z,0000388,01000608,0000.66,0000.53,0000.07,0000.29,0000.16,-000.10,0000.17,0000.07,0000.37,26.9,00.2,0657.1,34.8
2016-09-02T00:30:00Z,0000388,01000608,0000.53,0000.38,0000.80,-000.05,0000.03,-000.21,-000.02,0000.15,0000.01,26.8,00.2,0657.1,34.8
2016-09-02T00:31:00Z,0000388,01000608,-000.51,0000.34,0000.24,-000.21,0000.34,0000.02,0000.14,-000.15,-000.17,26.9,00.1,0657.2,34.8
2016-09-02T00:32:00Z,0000388,01000608,0001.28,0000.45,0000.39,0000.76,0000.19,-000.06,-000.04,-000.00,-000.09,26.9,00.1,0657.2,34.8
2016-09-02T00:33:00Z,0000388,01000608,-000.17,0000.57,0000.38,-000.26,-000.26,-000.06,-000.33,-000.03,0000.24,26.9,00.1,0657.2,34.8
2016-09-02T00:34:00Z,0000388,01000608,0000.93,0000.29,0000.43,-000.69,0000.35,-000.15,0000.40,0000.30,0000.03,26.9,00.2,0657.2,34.8
2016-09-02T00:35:00Z,0000388,01000608,-000.13,0000.91,0000.32,-000.35,0000.38,0000.23,-000.01,-000.18,-000.14,26.9,00.2,0657.2,34.8
2016-09-02T00:36:00Z,0000388,01000608,0000.85,0000.54,0000.53,-000.08,0000.13,-000.11,0000.22,0000.02,0000.28,26.9,00.1,0657.2,34.8
2016-09-02T00:37:00Z,0000388,01000608,0000.53,-000.25,0000.33,-000.63,0000.18,-000.21,0000.01,0000.17,0000.07,26.9,00.2,0657.2,34.8
2016-09-02T00:38:00Z,0000388,01000608,0000.12,0000.94,0000.35,-000.16,-000.30,-000.18,0000.06,-000.02,-000.09,26.9,00.1,0657.2,34.8
2016-09-02T00:39:00Z,0000388,01000608,0000.49,-000.04,0000.09,0000.13,-000.02,-000.19,-000.22,0000.03,-000.00,26.9,00.2,0657.3,34.8
2016-09-02T00:40:00Z,0000388,01000608,0001.73,0000.72,-000.08,-000.11,0000.56,-000.06,0000.18,-000.08,-000.20,26.9,00.2,0657.2,34.8
2016-09-02T00:41:00Z,0000388,01000608,0001.18,0000.71,-000.19,0000.27,-000.02,-000.03,0000.09,0000.16,0000.05,26.9,00.2,0657.2,34.8
2016-09-02T00:42:00Z,0000388,01000608,0000.77,0000.17,0000.60,0000.11,0000.02,0000.10,0000.20,0000.06,0000.35,27.0,00.1,0657.2,34.8
2016-09-02T00:43:00Z,0000388,01000608,0000.68,0000.43,0000.24,0000.21,-000.03,0000.06,-000.07,0000.20,0000.24,26.9,00.2,0657.2,34.8
2016-09-02T00:44:00Z,0000388,01000608,-000.02,0000.42,0000.30,0000.19,-000.03,-000.18,0000.21,-000.00,-000.30,26.9,00.2,0657.2,34.8
2016-09-02T00:45:00Z,0000388,01000608,0000.65,0000.39,-000.11,-000.31,0000.03,0000.37,-000.08,0000.19,0000.30,26.9,00.2,0657.2,34.8
2016-09-02T00:46:00Z,0000388,01000608,0000.70,0000.05,0000.19,0000.13,0000.03,0000.18,0000.10,-000.11,-000.09,26.9,00.2,0657.3,34.8
2016-09-02T00:47:00Z,0000388,01000608,0000.32,0000.65,0000.18,0000.13,0000.34,0000.16,0000.07,0000.16,-000.07,26.9,00.1,0657.3,34.8
2016-09-02T00:48:00Z,0000388,01000608,0000.49,-000.31,-000.12,0000.47,0000.03,-000.26,0000.04,0000.00,0000.20,26.9,00.2,0657.3,34.8
2016-09-02T00:49:00Z,0000388,01000608,0000.99,0000.51,0000.29,-000.34,-000.02,-000.03,0000.03,0000.12,0000.16,26.8,00.2,0657.2,34.8
2016-09-02T00:50:00Z,0000388,01000608,0002.00,0000.53,0000.19,0000.39,0000.13,0000.05,0000.01,-000.06,-000.26,26.8,00.2,0657.3,34.8
2016-09-02T00:51:00Z,0000388,01000608,0000.27,0000.94,0000.05,0000.87,-000.08,0000.45,0000.13,0000.08,0000.16,26.8,00.2,0657.3,34.8
2016-09-02T00:52:00Z,0000388,01000608,0000.71,0000.13,0000.27,0000.21,-000.19,-000.18,0000.03,0000.04,0000.07,26.8,00.2,0657.3,34.8
2016-09-02T00:53:00Z,0000388,01000608,0001.32,0000.66,0000.52,-000.27,-000.22,0000.08,0000.12,-000.01,0000.14,26.8,00.2,0657.3,34.8
2016-09-02T00:54:00Z,0000388,01000608,0000.70,0000.32,0000.61,0000.60,0000.11,0000.13,0000.05,0000.03,-000.09,26.8,00.2,0657.4,34.8
2016-09-02T00:55:00Z,0000388,01000608,0000.94,-000.48,0000.06,-000.19,-000.05,-000.39,0000.09,0000.10,0000.06,26.8,00.2,0657.3,34.8
2016-09-02T00:56:00Z,0000388,01000608,0000.30,0000.07,0000.12,-000.37,-000.13,-000.29,-000.06,0000.14,0000.45,26.8,00.2,0657.3,34.8
2016-09-02T00:57:00Z,0000388,41000608,,,,,,,,,,,,0657.1,34.8
2016-09-02T00:58:00Z,0000388,61000608,,,,,,,,,,26.7,00.2,0656.2,34.8
2016-09-02T00:59:00Z,0000388,21000608,,,,,,,,,,26.7,00.1,0656.2,34.8
2016-09-02T01:00:00Z,0000388,21000608,,,,,,,,,,26.7,00.1,0656.2,34.8
2016-09-02T01:01:00Z,0000388,21000608,,,,,,,,,,26.7,00.1,0656.2,34.8
2016-09-02T01:02:00Z,0000388,21000608,,,,,,,,,,26.7,00.1,0656.2,34.8
2016-09-02T01:03:00Z,0000388,61000608,,,,,,,,,,26.7,00.1,0656.2,34.8
2016-09-02T01:04:00Z,0000388,41000608,0001.69,0000.64,0000.19,0000.63,-000.45,0000.39,0000.19,0000.16,0000.09,26.7,00.3,0657.0,34.8
2016-09-02T01:05:00Z,0000388,01000608,0001.38,0000.06,0000.35,-000.02,0000.42,0000.11,-000.04,0000.14,0000.20,26.7,00.4,0657.0,34.8
2016-09-02T01:06:00Z,0000388,01000608,0001.76,0001.14,0000.41,0000.47,-000.18,0000.34,-000.01,-000.11,-000.05,26.7,00.5,0657.0,34.8
2016-09-02T01:07:00Z,0000388,01000608,0001.15,0000.53,0000.73,0000.27,-000.19,-000.13,0000.30,0000.22,0000.25,26.7,00.5,0657.0,34.8
2016-09-02T01:08:00Z,0000388,01000608,0000.40,0000.77,0000.39,-000.34,-000.56,0000.24,-000.01,-000.03,-000.06,26.7,00.5,0656.9,34.8
2016-09-02T01:09:00Z,0000388,01000608,0000.60,0000.26,0000.11,-000.10,0000.11,-000.26,0000.03,0000.19,0000.25,26.7,00.6,0656.9,34.8
2016-09-02T01:10:00Z,0000388,01000608,0001.69,0000.93,0000.33,-000.10,-000.50,0000.08,0000.05,-000.07,-000.36,26.7,00.6,0657.0,34.8
2016-09-02T01:11:00Z,0000388,01000608,0001.87,0000.60,0000.45,0000.69,0000.03,0000.18,0000.06,0000.07,0000.30,26.7,00.6,0657.0,34.8
2016-09-02T01:12:00Z,0000388,01000608,0001.05,0000.90,0000.64,0000.60,0000.43,0000.03,0000.11,0000.09,-000.17,26.7,00.5,0657.0,34.8
2016-09-02T01:13:00Z,0000388,01000608,0001.80,0000.21,0000.25,0000.27,0000.11,-000.24,0000.11,0000.11,0000.08,26.7,00.5,0656.9,34.8
2016-09-02T01:14:00Z,0000388,01000608,0001.15,0000.46,0000.36,0000.10,-000.26,-000.03,0000.15,-000.12,0000.21,26.6,00.6,0656.7,34.8
2016-09-02T01:15:00Z,0000388,01000608,0001.22,0000.55,0000.32,0000.97,0000.13,0000.18,-000.00,0000.16,-000.07,26.6,00.6,0656.9,34.7
2016-09-02T01:16:00Z,0000388,01000608,0001.00,0000.46,0000.25,0000.58,0000.26,0000.05,-000.01,0000.09,0000.14,26.6,00.6,0656.9,34.7
2016-09-02T01:17:00Z,0000388,01000608,0001.18,0000.69,0000.37,0000.53,-000.13,-000.21,-000.09,0000.03,0000.01,26.5,00.6,0657.0,34.7
2016-09-02T01:18:00Z,0000388,01000608,0001.66,0000.34,0000.30,0000.40,-000.19,0000.32,0000.29,0000.19,-000.03,26.5,00.6,0656.9,34.7
2016-09-02T01:19:00Z,0000388,01000608,0001.56,0001.16,0000.25,0000.02,-000.32,0000.31,-000.18,-000.15,-000.06,26.5,00.6,0656.9,34.7
2016-09-02T01:20:00Z,0000388,01000608,0000.74,0000.00,0000.43,0000.60,0000.00,-000.08,0000.12,0000.17,0000.34,26.5,00.5,0656.8,34.7
2016-09-02T01:21:00Z,0000388,01000608,0000.76,0001.15,0000.56,0000.97,-000.11,0000.10,0000.03,0000.07,0000.14,26.5,00.6,0656.8,34.7
2016-09-02T01:22:00Z,0000388,01000608,0000.65,0000.99,0000.12,0000.14,-000.05,-000.06,0000.23,-000.06,-000.25,26.5,00.6,0656.8,34.7
2016-09-02T01:23:00Z,0000388,01000608,0001.20,0000.69,0000.45,0000.23,-000.46,-000.11,-000.15,0000.07,0000.20,26.5,00.6,0656.9,34.7
2016-09-02T01:24:00Z,0000388,01000608,0002.19,0000.38,0000.53,0000.40,-000.03,-000.02,0000.09,0000.08,-000.25,26.4,00.6,0656.9,34.7
2016-09-02T01:25:00Z,0000388,01000608,0000.86,-000.27,0000.62,0000.27,0000.27,0000.14,-000.05,0000.02,0000.45,26.4,00.6,0657.0,34.7
2016-09-02T01:26:00Z,0000388,01000608,0002.11,0000.63,0000.75,0000.31,0000.18,0000.03,-000.03,-000.06,-000.29,26.4,00.5,0656.7,34.7
2016-09-02T01:27:00Z,0000388,01000608,0000.84,0000.46,0000.68,0000.14,-000.19,0000.13,0000.26,0000.12,0000.34,26.4,00.7,0656.8,34.7
2016-09-02T01:28:00Z,0000388,01000608,0001.21,0000.46,0000.38,0000.02,-000.10,0000.05,-000.09,-000.08,-000.26,26.3,00.6,0656.6,34.7
2016-09-02T01:29:00Z,0000388,01000608,0001.72,0000.84,0000.22,0000.32,0000.05,0000.45,0000.01,0000.13,0000.21,26.3,00.7,0656.8,34.7
2016-09-02T01:30:00Z,0000388,01000608,0000.79,0000.30,0000.04,0000.03,-000.27,-000.10,0000.13,0000.02,0000.04,26.3,00.6,0657.0,34.7
2016-09-02T01:31:00Z,0000388,01000608,0001.83,0000.75,0001.02,0000.31,-000.05,0000.16,0000.00,0000.35,0000.10,26.3,00.6,0656.9,34.7
2016-09-02T01:32:00Z,0000388,01000608,0001.00,0000.32,0000.61,-000.03,0000.05,0000.34,0000.21,-000.11,0000.06,26.3,00.7,0656.9,34.7
2016-09-02T01:33:00Z,0000388,01000608,0000.99,0000.02,0000.57,0000.24,-000.03,0000.24,-000.07,0000.15,0000.12,26.3,00.7,0656.9,34.7
2016-09-02T01:34:00Z,0000388,01000608,0000.28,0000.40,-000.09,0000.43,-000.14,0000.10,0000.07,0000.06,0000.05,26.3,00.7,0656.8,34.7
2016-09-02T01:35:00Z,0000388,01000608,0000.28,0000.71,0000.00,0000.76,-000.08,-000.27,0000.01,0000.04,0000.11,26.3,00.7,0656.8,34.7
2016-09-02T01:36:00Z,0000388,01000608,0000.79,0000.63,0000.59,0000.21,-000.32,0000.27,-000.08,-000.03,-000.09,26.3,00.6,0656.9,34.7
2016-09-02T01:37:00Z,0000388,01000608,0000.62,0000.30,0000.05,-000.03,0000.08,0000.02,0000.13,-000.01,0000.22,26.3,00.7,0656.9,34.7
2016-09-02T01:38:00Z,0000388,01000608,0001.62,0000.29,0000.12,-000.37,-000.26,-000.11,-000.04,0000.01,-000.25,26.3,00.6,0657.0,34.7
2016-09-02T01:39:00Z,0000388,01000608,0000.56,-000.09,0000.64,0000.21,-000.18,-000.03,0000.16,-000.02,0000.20,26.3,00.6,0657.0,34.7
2016-09-02T01:40:00Z,0000388,01000608,0000.80,-000.02,0000.53,0000.05,0000.32,0000.06,-000.10,0000.27,-000.17,26.3,00.6,0657.0,34.7
2016-09-02T01:41:00Z,0000388,01000608,-000.12,0000.35,0000.34,0000.95,-000.37,-000.13,0000.20,-000.19,-000.19,26.3,00.7,0657.0,34.7
2016-09-02T01:42:00Z,0000388,01000608,0000.85,0000.51,0000.47,0000.45,-000.08,0000.06,-000.09,0000.10,0000.34,26.3,00.6,0657.0,34.7
2016-09-02T01:43:00Z,0000388,01000608,0000.99,0000.49,-000.32,0000.66,-000.10,0000.05,0000.01,0000.16,-000.09,26.3,00.6,0657.0,34.7
2016-09-02T01:44:00Z,0000388,01000608,0000.00,0000.31,0000.17,-000.19,-000.48,-000.34,0000.15,-000.11,0000.41,26.2,00.5,0657.0,34.7
2016-09-02T01:45:00Z,0000388,01000608,0000.59,0000.44,0000.21,0000.35,0000.08,0000.16,-000.02,-000.07,-000.12,26.2,00.5,0657.0,34.7
2016-09-02T01:46:00Z,0000388,01000608,0000.50,0000.33,0000.75,0000.29,-000.08,0000.43,0000.05,0000.10,0000.04,26.2,00.6,0657.1,34.7
2016-09-02T01:47:00Z,0000388,01000608,0001.07,0001.21,0000.58,0000.19,-000.48,0000.27,0000.15,0000.10,0000.03,26.2,00.5,0657.0,34.7
2016-09-02T01:48:00Z,0000388,01000608,0001.77,0000.14,-000.09,0000.10,-000.27,-000.08,-000.00,-000.02,-000.10,26.2,00.5,0657.0,34.7
2016-09-02T01:49:00Z,0000388,01000608,0001.14,0000.52,0000.08,0000.42,0000.21,-000.02,0000.21,-000.10,0000.06,26.2,00.5,0657.0,34.7
2016-09-02T01:50:00Z,0000388,01000608,0000.69,0000.12,0000.63,-000.05,-000.05,0000.23,-000.08,0000.13,-000.30,26.2,00.5,0657.0,34.7
2016-09-02T01:51:00Z,0000388,01000608,0001.52,0000.21,0000.28,0000.72,-000.26,0000.40,0000.11,0000.07,0000.27,26.2,00.5,0657.0,34.7
2016-09-02T01:52:00Z,0000388,01000608,0000.91,-000.14,0000.46,0000.55,-000.16,0000.13,-000.05,0000.09,0000.14,26.2,00.6,0657.0,34.7
2016-09-02T01:53:00Z,0000388,01000608,0000.69,0000.78,0000.53,-000.03,0000.11,-000.03,0000.09,-000.12,-000.13,26.2,00.5,0657.0,34.7
2016-09-02T01:54:00Z,0000388,01000608,0000.86,-000.16,0000.12,0000.74,-000.13,-000.06,0000.05,0000.17,-000.11,26.2,00.4,0657.0,34.7
2016-09-02T01:55:00Z,0000388,01000608,0001.44,0000.20,-000.25,0000.51,-000.11,0000.08,-000.06,-000.04,0000.07,26.2,00.4,0657.0,34.7
2016-09-02T01:56:00Z,0000388,01000608,0000.80,0000.29,0000.05,0000.23,0000.03,-000.06,0000.05,0000.10,0000.15,26.2,00.5,0657.0,34.7
2016-09-02T01:57:00Z,0000388,41000608,,,,,,,,,,,,0657.1,34.7
2016-09-02T01:58:00Z,0000388,61000608,,,,,,,,,,26.0,00.4,0656.0,34.7
2016-09-02T01:59:00Z,0000388,21000608,,,,,,,,,,26.0,00.4,0655.9,34.7
2016-09-02T02:00:00Z,0000388,21000608,,,,,,,,,,26.0,00.4,0655.9,34.7
2016-09-02T02:01:00Z,0000388,21000608,,,,,,,,,,26.0,00.3,0655.9,34.7
2016-09-02T02:02:00Z,0000388,21000608,,,,,,,,,,26.0,00.3,0655.9,34.7
2016-09-02T02:03:00Z,0000388,61000608,,,,,,,,,,26.1,00.3,0655.9,34.7
2016-09-02T02:04:00Z,0000388,41000608,-000.24,-000.07,0000.20,0000.40,0000.06,-000.06,0000.18,0000.00,0000.26,26.2,00.3,0656.9,34.7
2016-09-02T02:05:00Z,0000388,01000608,-000.29,0000.91,0000.39,-000.13,-000.11,0000.37,-000.00,0000.00,0000.03,26.2,00.3,0656.9,34.7
2016-09-02T02:06:00Z,0000388,01000608,0001.09,0000.12,0000.26,-000.11,-000.64,0000.02,-000.08,0000.01,-000.03,26.2,00.3,0656.9,34.7
2016-09-02T02:07:00Z,0000388,01000608,-000.54,0000.59,0000.00,-000.39,0000.18,0000.14,0000.04,0000.04,-000.01,26.2,00.2,0657.0,34.7
2016-09-02T02:08:00Z,0000388,01000608,0000.23,0000.76,0000.26,0000.11,-000.10,0000.03,0000.10,0000.02,-000.38,26.2,00.2,0657.0,34.7
2016-09-02T02:09:00Z,0000388,01000608,0000.29,0000.26,0000.23,0000.18,0000.24,0000.14,-000.04,-000.10,0000.57,26.1,00.2,0657.0,34.7
2016-09-02T02:10:00Z,0000388,01000608,0000.73,0000.23,0000.20,0000.53,-000.14,0000.08,0000.11,-000.01,-000.27,26.2,00.2,0657.0,34.7
2016-09-02T02:11:00Z,0000388,01000608,0001.05,-000.05,0000.33,0000.16,-000.06,0000.43,-000.18,0000.01,-000.18,26.1,00.2,0657.0,34.7
2016-09-02T02:12:00Z,0000388,01000608,0000.07,-000.48,-000.22,0000.67,0000.02,-000.14,0000.05,0000.05,-000.04,26.1,00.2,0657.0,34.7
2016-09-02T02:13:00Z,0000388,01000608,0000.03,0000.09,0000.04,-000.34,-000.30,0000.05,0000.09,0000.05,0000.13,26.1,00.2,0657.0,34.7
2016-09-02T02:14:00Z,0000388,01000608,0000.49,0000.13,0000.87,-000.14,0000.26,0000.19,-000.17,-000.04,0000.01,26.0,00.2,0657.0,34.7
2016-09-02T02:15:00Z,0000388,01000608,-000.38,0000.51,0000.12,-000.21,-000.05,0000.21,0000.17,-000.01,-000.18,26.0,00.1,0657.0,34.7
2016-09-02T02:16:00Z,0000388,01000608,0000.15,0000.16,0000.57,0000.92,0000.06,0000.66,-000.09,-000.11,0000.00,26.0,00.1,0657.0,34.7
2016-09-02T02:17:00Z,0000388,01000608,0000.58,-000.08,0000.64,-000.29,-000.05,-000.03,-000.22,0000.02,0000.01,26.0,00.1,0657.0,34.7
2016-09-02T02:18:00Z,0000388,01000608,-000.04,-000.12,0000.56,0000.45,0000.19,0000.34,0000.31,0000.15,0000.28,26.0,00.1,0657.0,34.7
2016-09-02T02:19:00Z,0000388,01000608,0000.90,0000.92,0000.23,-000.59,0000.22,0000.24,0000.20,-000.09,-000.12,26.0,00.1,0657.0,34.7
2016-09-02T02:20:00Z,0000388,01000608,-000.02,0000.40,-000.05,0000.08,-000.13,0000.43,-000.12,-000.05,0000.05,26.0,00.1,0657.0,34.7
2016-09-02T02:21:00Z,0000388,01000608,-001.02,0000.63,0000.58,0000.35,-000.18,0000.21,-000.01,-000.03,-000.01,26.0,00.1,0657.0,34.7
2016-09-02T02:22:00Z,0000388,01000608,0000.42,0000.57,0000.26,-000.02,0000.06,0000.11,0000.03,0000.10,-000.14,26.0,00.1,0657.0,34.7
2016-09-02T02:23:00Z,0000388,01000608,-000.57,0000.47,0000.44,-000.40,0000.19,0000.50,0000.08,0000.04,0000.18,26.0,00.1,0657.0,34.7
2016-09-02T02:24:00Z,0000388,01000608,-000.30,-000.32,-000.31,-000.24,0000.10,0000.02,-000.22,-000.09,-000.08,25.9,00.1,0657.0,34.7
2016-09-02T02:25:00Z,0000388,01000608,0000.00,0000.14,0000.53,-000.13,0000.00,0000.42,0000.18,0000.16,0000.02,25.9,00.1,0657.0,34.7
2016-09-02T02:26:00Z,0000388,01000608,-000.12,0000.50,0000.26,0000.43,0000.10,0000.14,-000.08,0000.11,0000.24,25.9,00.1,0656.9,34.7
2016-09-02T02:27:00Z,0000388,01000608,-000.27,0000.04,-000.04,0000.39,-000.46,0000.40,0000.08,-000.11,-000.08,25.9,00.1,0657.0,34.7
2016-09-02T02:28:00Z,0000388,01000608,0000.57,-000.47,0000.70,-000.40,0000.05,0000.50,-000.01,0000.06,-000.23,25.9,00.1,0657.0,34.7
2016-09-02T02:29:00Z,0000388,01000608,-001.29,0000.03,0000.57,0000.18,0000.53,0000.40,0000.01,-000.06,0000.09,25.9,00.1,0656.9,34.7
2016-09-02T02:30:00Z,0000388,01000608,0000.84,0000.87,0000.24,0000.35,-000.14,0000.50,-000.13,0000.03,-000.14,25.8,00.1,0656.9,34.7
2016-09-02T02:31:00Z,0000388,01000608,0000.53,0000.41,0000.21,0000.21,-000.16,0000.39,0000.31,-000.05,0000.39,25.9,00.0,0656.9,34.7
2016-09-02T02:32:00Z,0000388,01000608,0000.36,0000.65,0000.02,-000.29,0000.14,0000.00,-000.19,0000.06,-000.14,25.8,00.1,0656.9,34.7
2016-09-02T02:33:00Z,0000388,01000608,0000.43,0000.45,0000.08,0000.06,-000.35,0000.03,0000.15,0000.13,0000.24,25.9,00.0,0656.9,34.7
2016-09-02T02:34:00Z,0000388,01000608,-000.15,-000.37,0000.45,0000.51,-000.14,-000.08,-000.19,-000.08,-000.09,25.8,00.0,0656.9,34.7
2016-09-02T02:35:00Z,0000388,01000608,0000.02,0000.58,0000.52,0000.18,-000.26,0000.21,0000.26,-000.14,-000.19,25.8,00.0,0656.9,34.7
2016-09-02T02:36:00Z,0000388,01000608,-000.11,0000.55,-000.22,-000.02,-000.19,0000.00,-000.15,0000.29,0000.13,25.8,00.0,0656.9,34.7
2016-09-02T02:37:00Z,0000388,01000608,0000.38,0000.37,-000.12,-000.29,-000.26,0000.08,0000.32,-000.06,-000.21,25.8,00.0,0656.9,34.7
2016-09-02T02:38:00Z,0000388,01000608,0000.50,0000.77,0000.38,0000.40,-000.16,0000.22,-000.24,0000.04,-000.03,25.8,00.0,0656.9,34.7
2016-09-02T02:39:00Z,0000388,01000608,0000.67,0000.40,-000.10,0000.08,-000.16,-000.14,0000.18,0000.05,0000.12,25.8,00.0,0656.9,34.7
2016-09-02T02:40:00Z,0000388,01000608,-000.33,0000.29,0000.21,0000.10,0000.00,-000.11,-000.17,-000.03,0000.08,25.8,00.0,0656.9,34.7
2016-09-02T02:41:00Z,0000388,01000608,0001.24,0000.45,0000.25,0000.24,0000.03,0000.13,0000.29,-000.05,0000.22,25.8,00.0,0656.9,34.7
2016-09-02T02:42:00Z,0000380,01000600,-000.02,0000.04,0000.46,0000.16,-000.10,0000.06,-000.05,0000.17,-000.02,25.8,00.0,0656.8,34.7
2016-09-02T02:43:00Z,0000380,01000600,0000.20,0000.37,0000.30,0000.02,-000.10,-000.03,-000.02,0000.07,-000.17,25.8,00.0,0656.8,34.7
2016-09-02T02:44:00Z,0000380,01000600,-000.25,-000.12,-000.09,0000.29,0000.30,0000.05,0000.01,-000.01,-000.02,25.8,00.0,0656.8,34.7
2016-09-02T02:45:00Z,0000380,01000600,-000.15,0000.54,0000.12,0000.24,-000.05,0000.40,0000.01,-000.10,-000.11,25.8,00.0,0656.8,34.7
2016-09-02T02:46:00Z,0000380,01000600,-000.03,0000.62,0000.37,0000.21,-000.34,0000.53,0000.06,-000.03,0000.06,25.8,00.0,0656.8,34.7
2016-09-02T02:47:00Z,0000380,01000600,0000.46,0000.64,0000.30,0000.31,0000.02,0000.14,0000.03,0000.03,0000.04,25.8,00.0,0656.8,34.7
2016-09-02T02:48:00Z,0000380,01000600,-000.28,0000.27,0000.25,0000.39,0000.21,0000.42,0000.02,0000.28,0000.19,25.8,00.0,0656.8,34.7
2016-09-02T02:49:00Z,0000380,01000600,0000.91,0000.06,0000.09,0000.24,-000.16,0000.05,-000.05,-000.08,0000.00,25.9,00.0,0656.8,34.7
2016-09-02T02:50:00Z,0000380,01000600,-000.38,0000.43,0000.22,-000.11,-000.32,0000.16,0000.03,0000.07,-000.20,25.9,00.0,0656.8,34.7
2016-09-02T02:51:00Z,0000380,01000600,0000.37,0000.60,0000.17,-000.48,-000.08,0000.05,0000.20,0000.03,0000.16,25.9,00.0,0656.8,34.7
2016-09-02T02:52:00Z,0000380,01000600,0000.87,0000.76,-000.16,0000.10,-000.10,0000.11,-000.02,0000.06,-000.04,25.9,00.0,0656.8,34.7
2016-09-02T02:53:00Z,0000380,01000600,0000.06,-000.11,0000.16,-000.40,0000.05,0000.32,-000.22,-000.11,0000.20,26.0,00.0,0656.8,34.7
2016-09-02T02:54:00Z,0000380,01000600,-000.33,0000.95,0000.00,0000.40,-000.18,-000.14,0000.23,0000.07,-000.13,26.0,00.0,0656.8,34.7
2016-09-02T02:55:00Z,0000380,01000600,-000.33,-000.32,0000.19,0000.39,-000.27,0000.02,0000.09,0000.01,0000.02,26.0,00.0,0656.8,34.7
2016-09-02T02:56:00Z,0000380,01000600,0000.57,0000.32,0000.28,0000.11,0000.00,-000.11,0000.07,0000.28,0000.21,26.0,00.0,0656.7,34.7
2016-09-02T02:57:00Z,0000380,41000600,,,,,,,,,,,,0656.8,34.7
2016-09-02T02:58:00Z,0000380,61000600,,,,,,,,,,25.9,00.0,0655.7,34.7
2016-09-02T02:59:00Z,0000380,21000600,,,,,,,,,,26.0,00.0,0655.7,34.7
2016-09-02T03:00:00Z,0000380,21000600,,,,,,,,,,26.0,00.0,0655.7,34.8
2016-09-02T03:01:00Z,0000380,21000600,,,,,,,,,,26.0,00.0,0655.8,34.8
2016-09-02T03:02:00Z,0000380,21000600,,,,,,,,,,26.0,00.0,0655.8,34.8
2016-09-02T03:03:00Z,0000380,61000600,,,,,,,,,,26.0,00.0,0655.8,34.8
2016-09-02T03:04:00Z,0000380,41000600,0001.11,0000.61,0000.43,0000.59,0000.32,-000.37,0000.20,0000.09,-000.18,26.2,00.0,0656.8,34.8
2016-09-02T03:05:00Z,0000380,01000600,0001.52,0000.16,0000.64,-000.23,0000.54,0000.34,-000.19,-000.04,0000.06,26.2,00.0,0656.9,34.8
2016-09-02T03:06:00Z,0000380,01000600,0001.24,0000.51,0000.43,-000.31,0000.24,0000.08,0000.32,-000.07,-000.20,26.2,00.0,0656.9,34.8
2016-09-02T03:07:00Z,0000380,01000600,0000.70,0000.29,0000.44,0000.06,0000.03,0000.05,0000.05,-000.00,0000.02,26.3,00.0,0656.9,34.8
2016-09-02T03:08:00Z,0000380,01000600,0001.26,0000.77,0000.62,0000.16,0000.03,0000.03,-000.18,0000.03,0000.08,26.3,00.0,0657.0,34.8
2016-09-02T03:09:00Z,0000380,01000600,0000.84,0000.54,-000.05,0000.27,0000.00,-000.18,0000.01,0000.11,-000.14,26.3,00.0,0657.0,34.8
2016-09-02T03:10:00Z,0000380,01000600,-000.35,0000.15,0000.52,-000.19,-000.26,-000.02,0000.11,-000.07,0000.09,26.3,00.0,0657.0,34.8
2016-09-02T03:11:00Z,0000380,01000600,0000.75,0000.13,0000.71,0000.05,-000.05,0000.08,-000.08,0000.02,0000.27,26.3,00.0,0657.0,34.8
2016-09-02T03:12:00Z,0000380,01000600,0000.24,0000.81,-000.31,-000.02,0000.51,0000.29,0000.05,-000.01,-000.16,26.3,00.0,0657.0,34.8